Список аэропортов
Фактическая погода:

16 декабря, 13:20
Температура: +7°C (+4.3*)
Ветер: восточный 4 м/с
Давление: *765 мм
Без существ. явл.
Время (МСК)Темп. СВетерВлажностьДавлениеОблачностьОсадки
09:00+2СВ, 3 м/с73%1019 гПас прояснениями
10:00+2СВ, 4 м/с71%1019 гПаоблачно
11:00+3СВ, 4 м/с65%1020 гПаоблачно
12:00+5СВ, 3 м/с60%1020 гПаясно
13:00+7СВ, 3 м/с60%1020 гПаясно
14:00+8СВ, 2 м/с61%1020 гПамалооблачно
15:00+10В, 1 м/с62%1020 гПас прояснениями
16:00+10ЮВ, 1 м/с60%1019 гПас прояснениями
17:00+11Ю, 2 м/с59%1019 гПас прояснениями
18:00+11Ю, 2 м/с56%1019 гПас прояснениями
19:00+10ЮВ, 3 м/с57%1018 гПаоблачно
20:00+11ЮВ, 3 м/с56%1018 гПаоблачносл. дождь
21:00+11ЮВ, 5 м/с65%1018 гПаоблачносл. дождь
22:00+11ЮВ, 6 м/с73%1017 гПаоблачносл. дождь
23:00+11ЮВ, 7 м/с75%1016 гПаоблачнодождь
17 декабря
00:00+11ЮВ, 8 м/с78%1014 гПаоблачносл. дождь
01:00+12ЮВ, 9 м/с80%1013 гПаоблачнодождь
02:00+14ЮВ, 10 м/с85%1012 гПаоблачнодождь
03:00+15ЮВ, 8 м/с89%1011 гПаоблачнодождь
04:00+16Ю, 5 м/с86%1011 гПаоблачнодождь
05:00+16ЮЗ, 11 м/с74%1010 гПаоблачносл. дождь
06:00+16ЮЗ, 11 м/с72%1008 гПас прояснениямидождь
07:00+16З, 11 м/с77%1008 гПаоблачнодождь
08:00+14СЗ, 8 м/с75%1009 гПас прояснениями
09:00+14СЗ, 7 м/с75%1009 гПаоблачнодождь
10:00+13СЗ, 6 м/с76%1009 гПаоблачнодождь
11:00+13З, 6 м/с80%1010 гПаоблачнодождь
12:00+13З, 7 м/с79%1010 гПаоблачнодождь
13:00+13З, 8 м/с79%1009 гПаоблачнодождь
14:00+13З, 11 м/с75%1008 гПаоблачнодождь
15:00+12СЗ, 8 м/с76%1009 гПаоблачнодождь
16:00+12З, 8 м/с76%1009 гПаоблачнодождь
17:00+12СЗ, 10 м/с73%1009 гПаоблачнодождь
18:00+11СЗ, 10 м/с69%1009 гПас прояснениями
19:00+10СЗ, 8 м/с76%1010 гПаоблачно
20:00+9СЗ, 8 м/с73%1011 гПаоблачно
21:00+9СЗ, 9 м/с74%1012 гПас прояснениями
22:00+8СЗ, 7 м/с75%1013 гПас прояснениями
23:00+8СЗ, 7 м/с71%1014 гПас прояснениями
18 декабря
00:00+7СЗ, 7 м/с70%1014 гПамалооблачно
01:00+8С, 7 м/с69%1014 гПас прояснениями
02:00+8С, 8 м/с66%1015 гПас прояснениями
03:00+8С, 9 м/с65%1016 гПас прояснениями
04:00+8СЗ, 9 м/с68%1016 гПамалооблачно
05:00+8СЗ, 9 м/с67%1017 гПаясно
06:00+8С, 10 м/с66%1018 гПамалооблачно
07:00+8С, 10 м/с65%1019 гПаясно
08:00+8С, 10 м/с64%1021 гПаясно
09:00+8С, 9 м/с63%1022 гПаясно